owner,sensor,date,latitude,longitude,vertical_datum,sea_water_practical_salinity,qcFlag 
TABS,ioos:station:TABS:X:1,2015-10-10T14:00:00Z,27.0660,-96.3383,2.0,0.0,11111222 
TABS,ioos:station:TABS:X:1,2015-10-10T20:30:00Z,27.0660,-96.3383,2.0,0.01,11111222 
TABS,ioos:station:TABS:X:1,2015-10-10T21:00:00Z,27.0660,-96.3383,2.0,0.01,11111222 
TABS,ioos:station:TABS:X:1,2015-10-10T22:00:00Z,27.0660,-96.3383,2.0,0.01,11111222 
TABS,ioos:station:TABS:X:1,2015-10-10T22:30:00Z,27.0660,-96.3383,2.0,0.01,11111222 
TABS,ioos:station:TABS:X:1,2015-10-10T23:00:00Z,27.0660,-96.3383,2.0,0.01,11111222 
TABS,ioos:station:TABS:X:1,2015-10-11T00:00:00Z,27.0660,-96.3383,2.0,0.02,11111222 
TABS,ioos:station:TABS:X:1,2015-10-11T00:30:00Z,27.0660,-96.3383,2.0,36.44,11111222 
TABS,ioos:station:TABS:X:1,2015-10-11T01:00:00Z,27.0660,-96.3383,2.0,36.44,11111222 
TABS,ioos:station:TABS:X:1,2015-10-11T01:30:00Z,27.0660,-96.3383,2.0,36.45,11111222 
TABS,ioos:station:TABS:X:1,2015-10-11T02:00:00Z,27.0660,-96.3383,2.0,36.45,11111222 
TABS,ioos:station:TABS:X:1,2015-10-11T02:30:00Z,27.0660,-96.3383,2.0,36.45,11111222 
TABS,ioos:station:TABS:X:1,2015-10-11T03:00:00Z,27.0660,-96.3383,2.0,36.45,11111222 
TABS,ioos:station:TABS:X:1,2015-10-11T03:30:00Z,27.0660,-96.3383,2.0,36.45,11111222 
TABS,ioos:station:TABS:X:1,2015-10-11T04:00:00Z,27.0660,-96.3383,2.0,36.45,11111222 
TABS,ioos:station:TABS:X:1,2015-10-11T04:30:00Z,27.0660,-96.3383,2.0,36.45,11111222 
TABS,ioos:station:TABS:X:1,2015-10-11T05:00:00Z,27.0660,-96.3383,2.0,36.45,11111222 
TABS,ioos:station:TABS:X:1,2015-10-11T05:30:00Z,27.0660,-96.3383,2.0,36.45,11111222 
TABS,ioos:station:TABS:X:1,2015-10-11T06:00:00Z,27.0660,-96.3383,2.0,36.44,11111222 
TABS,ioos:station:TABS:X:1,2015-10-11T06:30:00Z,27.0660,-96.3383,2.0,36.44,11111222 
TABS,ioos:station:TABS:X:1,2015-10-11T07:00:00Z,27.0660,-96.3383,2.0,36.44,11111222 
TABS,ioos:station:TABS:X:1,2015-10-11T07:30:00Z,27.0660,-96.3383,2.0,36.44,11111222 
TABS,ioos:station:TABS:X:1,2015-10-11T08:00:00Z,27.0660,-96.3383,2.0,36.44,11111222 
TABS,ioos:station:TABS:X:1,2015-10-11T08:30:00Z,27.0660,-96.3383,2.0,36.44,11111222 
TABS,ioos:station:TABS:X:1,2015-10-11T09:00:00Z,27.0660,-96.3383,2.0,36.44,11111222 
TABS,ioos:station:TABS:X:1,2015-10-11T09:30:00Z,27.0660,-96.3383,2.0,36.45,11111222 
TABS,ioos:station:TABS:X:1,2015-10-11T10:00:00Z,27.0660,-96.3383,2.0,36.44,11111222 
TABS,ioos:station:TABS:X:1,2015-10-11T10:30:00Z,27.0660,-96.3383,2.0,36.45,11111222 
TABS,ioos:station:TABS:X:1,2015-10-11T11:00:00Z,27.0660,-96.3383,2.0,36.44,11111222 
TABS,ioos:station:TABS:X:1,2015-10-11T11:30:00Z,27.0660,-96.3383,2.0,36.44,11111222 
TABS,ioos:station:TABS:X:1,2015-10-11T12:00:00Z,27.0660,-96.3383,2.0,36.44,11111222 
TABS,ioos:station:TABS:X:1,2015-10-11T12:30:00Z,27.0660,-96.3383,2.0,36.44,11111222 
TABS,ioos:station:TABS:X:1,2015-10-11T13:00:00Z,27.0660,-96.3383,2.0,36.44,11111222 
TABS,ioos:station:TABS:X:1,2015-10-11T13:30:00Z,27.0660,-96.3383,2.0,36.45,11111222 
TABS,ioos:station:TABS:X:1,2015-10-11T14:00:00Z,27.0660,-96.3383,2.0,36.44,11111222 
TABS,ioos:station:TABS:X:1,2015-10-11T14:30:00Z,27.0660,-96.3383,2.0,36.45,11111222 
TABS,ioos:station:TABS:X:1,2015-10-11T15:00:00Z,27.0660,-96.3383,2.0,36.45,11111222 
TABS,ioos:station:TABS:X:1,2015-10-11T15:30:00Z,27.0660,-96.3383,2.0,36.45,11111222 
TABS,ioos:station:TABS:X:1,2015-10-11T16:00:00Z,27.0660,-96.3383,2.0,36.46,11111222 
TABS,ioos:station:TABS:X:1,2015-10-11T16:30:00Z,27.0660,-96.3383,2.0,36.46,11111222 
TABS,ioos:station:TABS:X:1,2015-10-11T17:00:00Z,27.0660,-96.3383,2.0,36.51,11111222 
TABS,ioos:station:TABS:X:1,2015-10-11T17:30:00Z,27.0660,-96.3383,2.0,36.51,11111222 
TABS,ioos:station:TABS:X:1,2015-10-11T18:00:00Z,27.0660,-96.3383,2.0,36.56,11111222 
TABS,ioos:station:TABS:X:1,2015-10-11T18:30:00Z,27.0660,-96.3383,2.0,36.55,11111222 
TABS,ioos:station:TABS:X:1,2015-10-11T19:00:00Z,27.0660,-96.3383,2.0,36.59,11111222 
TABS,ioos:station:TABS:X:1,2015-10-11T19:30:00Z,27.0660,-96.3383,2.0,36.51,11111222 
TABS,ioos:station:TABS:X:1,2015-10-11T20:00:00Z,27.0660,-96.3383,2.0,36.55,11111222 
TABS,ioos:station:TABS:X:1,2015-10-11T20:30:00Z,27.0660,-96.3383,2.0,36.5,11111222 
TABS,ioos:station:TABS:X:1,2015-10-11T21:00:00Z,27.0660,-96.3383,2.0,36.53,11111222 
TABS,ioos:station:TABS:X:1,2015-10-11T21:30:00Z,27.0660,-96.3383,2.0,36.51,11111222 
TABS,ioos:station:TABS:X:1,2015-10-11T22:00:00Z,27.0660,-96.3383,2.0,36.47,11111222 
TABS,ioos:station:TABS:X:1,2015-10-11T22:30:00Z,27.0660,-96.3383,2.0,36.47,11111222 
TABS,ioos:station:TABS:X:1,2015-10-11T23:00:00Z,27.0660,-96.3383,2.0,36.46,11111222 
TABS,ioos:station:TABS:X:1,2015-10-11T23:30:00Z,27.0660,-96.3383,2.0,36.46,11111222 
TABS,ioos:station:TABS:X:1,2015-10-12T00:00:00Z,27.0660,-96.3383,2.0,36.45,11111222 
TABS,ioos:station:TABS:X:1,2015-10-12T00:30:00Z,27.0660,-96.3383,2.0,36.48,11111222 
TABS,ioos:station:TABS:X:1,2015-10-12T01:00:00Z,27.0660,-96.3383,2.0,36.48,11111222 
TABS,ioos:station:TABS:X:1,2015-10-12T01:30:00Z,27.0660,-96.3383,2.0,36.48,11111222 
TABS,ioos:station:TABS:X:1,2015-10-12T02:00:00Z,27.0660,-96.3383,2.0,36.48,11111222 
TABS,ioos:station:TABS:X:1,2015-10-12T02:30:00Z,27.0660,-96.3383,2.0,36.47,11111222 
TABS,ioos:station:TABS:X:1,2015-10-12T03:00:00Z,27.0660,-96.3383,2.0,36.48,11111222 
TABS,ioos:station:TABS:X:1,2015-10-12T03:30:00Z,27.0660,-96.3383,2.0,36.48,11111222 
TABS,ioos:station:TABS:X:1,2015-10-12T04:00:00Z,27.0660,-96.3383,2.0,36.47,11111222 
TABS,ioos:station:TABS:X:1,2015-10-12T04:30:00Z,27.0660,-96.3383,2.0,36.48,11111222 
TABS,ioos:station:TABS:X:1,2015-10-12T05:00:00Z,27.0660,-96.3383,2.0,36.48,11111222 
TABS,ioos:station:TABS:X:1,2015-10-12T05:30:00Z,27.0660,-96.3383,2.0,36.48,11111222 
TABS,ioos:station:TABS:X:1,2015-10-12T06:00:00Z,27.0660,-96.3383,2.0,36.48,11111222 
TABS,ioos:station:TABS:X:1,2015-10-12T06:30:00Z,27.0660,-96.3383,2.0,36.48,11111222 
TABS,ioos:station:TABS:X:1,2015-10-12T07:00:00Z,27.0660,-96.3383,2.0,36.48,11111222 
TABS,ioos:station:TABS:X:1,2015-10-12T07:30:00Z,27.0660,-96.3383,2.0,36.48,11111222 
TABS,ioos:station:TABS:X:1,2015-10-12T08:00:00Z,27.0660,-96.3383,2.0,36.48,11111222 
TABS,ioos:station:TABS:X:1,2015-10-12T08:30:00Z,27.0660,-96.3383,2.0,36.49,11111222 
TABS,ioos:station:TABS:X:1,2015-10-12T09:00:00Z,27.0660,-96.3383,2.0,36.48,11111222 
TABS,ioos:station:TABS:X:1,2015-10-12T09:30:00Z,27.0660,-96.3383,2.0,36.48,11111222 
TABS,ioos:station:TABS:X:1,2015-10-12T10:00:00Z,27.0660,-96.3383,2.0,36.48,11111222 
TABS,ioos:station:TABS:X:1,2015-10-12T10:30:00Z,27.0660,-96.3383,2.0,36.48,11111222 
TABS,ioos:station:TABS:X:1,2015-10-12T11:00:00Z,27.0660,-96.3383,2.0,36.49,11111222 
TABS,ioos:station:TABS:X:1,2015-10-12T11:30:00Z,27.0660,-96.3383,2.0,36.48,11111222 
TABS,ioos:station:TABS:X:1,2015-10-12T12:00:00Z,27.0660,-96.3383,2.0,36.48,11111222 
TABS,ioos:station:TABS:X:1,2015-10-12T12:30:00Z,27.0660,-96.3383,2.0,36.48,11111222 
TABS,ioos:station:TABS:X:1,2015-10-12T13:00:00Z,27.0660,-96.3383,2.0,36.48,11111222 
TABS,ioos:station:TABS:X:1,2015-10-12T13:30:00Z,27.0660,-96.3383,2.0,36.48,11111222 
TABS,ioos:station:TABS:X:1,2015-10-12T14:00:00Z,27.0660,-96.3383,2.0,36.48,11111222 
TABS,ioos:station:TABS:X:1,2015-10-12T14:30:00Z,27.0660,-96.3383,2.0,36.48,11111222 
TABS,ioos:station:TABS:X:1,2015-10-12T15:00:00Z,27.0660,-96.3383,2.0,36.48,11111222 
TABS,ioos:station:TABS:X:1,2015-10-12T15:30:00Z,27.0660,-96.3383,2.0,36.48,11111222 
TABS,ioos:station:TABS:X:1,2015-10-12T16:00:00Z,27.0660,-96.3383,2.0,36.48,11111222 
TABS,ioos:station:TABS:X:1,2015-10-12T16:30:00Z,27.0660,-96.3383,2.0,36.48,11111222 
TABS,ioos:station:TABS:X:1,2015-10-12T17:00:00Z,27.0660,-96.3383,2.0,36.48,11111222 
TABS,ioos:station:TABS:X:1,2015-10-12T17:30:00Z,27.0660,-96.3383,2.0,36.48,11111222 
TABS,ioos:station:TABS:X:1,2015-10-12T18:00:00Z,27.0660,-96.3383,2.0,36.49,11111222 
TABS,ioos:station:TABS:X:1,2015-10-12T18:30:00Z,27.0660,-96.3383,2.0,36.49,11111222 
TABS,ioos:station:TABS:X:1,2015-10-12T19:00:00Z,27.0660,-96.3383,2.0,36.49,11111222 
TABS,ioos:station:TABS:X:1,2015-10-12T19:30:00Z,27.0660,-96.3383,2.0,36.49,11111222 
TABS,ioos:station:TABS:X:1,2015-10-12T20:00:00Z,27.0660,-96.3383,2.0,36.49,11111222 
TABS,ioos:station:TABS:X:1,2015-10-12T20:30:00Z,27.0660,-96.3383,2.0,36.49,11111222 
TABS,ioos:station:TABS:X:1,2015-10-12T21:00:00Z,27.0660,-96.3383,2.0,36.49,11111222 
TABS,ioos:station:TABS:X:1,2015-10-12T21:30:00Z,27.0660,-96.3383,2.0,36.49,11111222 
TABS,ioos:station:TABS:X:1,2015-10-12T22:00:00Z,27.0660,-96.3383,2.0,36.49,11111222 
TABS,ioos:station:TABS:X:1,2015-10-12T22:30:00Z,27.0660,-96.3383,2.0,36.48,11111222 
TABS,ioos:station:TABS:X:1,2015-10-12T23:00:00Z,27.0660,-96.3383,2.0,36.48,11111222 
TABS,ioos:station:TABS:X:1,2015-10-12T23:30:00Z,27.0660,-96.3383,2.0,36.48,11111222 
TABS,ioos:station:TABS:X:1,2015-10-13T00:00:00Z,27.0660,-96.3383,2.0,36.47,11111222 
TABS,ioos:station:TABS:X:1,2015-10-13T00:30:00Z,27.0660,-96.3383,2.0,36.48,11111222 
TABS,ioos:station:TABS:X:1,2015-10-13T01:00:00Z,27.0660,-96.3383,2.0,36.48,11111222 
TABS,ioos:station:TABS:X:1,2015-10-13T01:30:00Z,27.0660,-96.3383,2.0,36.48,11111222 
TABS,ioos:station:TABS:X:1,2015-10-13T02:00:00Z,27.0660,-96.3383,2.0,36.48,11111222 
TABS,ioos:station:TABS:X:1,2015-10-13T02:30:00Z,27.0660,-96.3383,2.0,36.48,11111222 
TABS,ioos:station:TABS:X:1,2015-10-13T03:00:00Z,27.0660,-96.3383,2.0,36.48,11111222 
TABS,ioos:station:TABS:X:1,2015-10-13T03:30:00Z,27.0660,-96.3383,2.0,36.48,11111222 
TABS,ioos:station:TABS:X:1,2015-10-13T04:00:00Z,27.0660,-96.3383,2.0,36.47,11111222 
TABS,ioos:station:TABS:X:1,2015-10-13T04:30:00Z,27.0660,-96.3383,2.0,36.47,11111222 
TABS,ioos:station:TABS:X:1,2015-10-13T05:00:00Z,27.0660,-96.3383,2.0,36.47,11111222 
TABS,ioos:station:TABS:X:1,2015-10-13T05:30:00Z,27.0660,-96.3383,2.0,36.47,11111222 
TABS,ioos:station:TABS:X:1,2015-10-13T06:00:00Z,27.0660,-96.3383,2.0,36.47,11111222 
TABS,ioos:station:TABS:X:1,2015-10-13T06:30:00Z,27.0660,-96.3383,2.0,36.47,11111222 
TABS,ioos:station:TABS:X:1,2015-10-13T07:00:00Z,27.0660,-96.3383,2.0,36.46,11111222 
TABS,ioos:station:TABS:X:1,2015-10-13T07:30:00Z,27.0660,-96.3383,2.0,36.46,11111222 
TABS,ioos:station:TABS:X:1,2015-10-13T08:00:00Z,27.0660,-96.3383,2.0,36.46,11111222 
TABS,ioos:station:TABS:X:1,2015-10-13T08:30:00Z,27.0660,-96.3383,2.0,36.46,11111222 
TABS,ioos:station:TABS:X:1,2015-10-13T09:00:00Z,27.0660,-96.3383,2.0,36.47,11111222 
TABS,ioos:station:TABS:X:1,2015-10-13T09:30:00Z,27.0660,-96.3383,2.0,36.47,11111222 
TABS,ioos:station:TABS:X:1,2015-10-13T10:00:00Z,27.0660,-96.3383,2.0,36.46,11111222 
TABS,ioos:station:TABS:X:1,2015-10-13T10:30:00Z,27.0660,-96.3383,2.0,36.46,11111222 
TABS,ioos:station:TABS:X:1,2015-10-13T11:00:00Z,27.0660,-96.3383,2.0,36.46,11111222 
TABS,ioos:station:TABS:X:1,2015-10-13T11:30:00Z,27.0660,-96.3383,2.0,36.46,11111222 
TABS,ioos:station:TABS:X:1,2015-10-13T12:00:00Z,27.0660,-96.3383,2.0,36.46,11111222 
TABS,ioos:station:TABS:X:1,2015-10-13T12:30:00Z,27.0660,-96.3383,2.0,36.46,11111222 
TABS,ioos:station:TABS:X:1,2015-10-13T13:00:00Z,27.0660,-96.3383,2.0,36.46,11111222 
TABS,ioos:station:TABS:X:1,2015-10-13T13:30:00Z,27.0660,-96.3383,2.0,36.47,11111222 
TABS,ioos:station:TABS:X:1,2015-10-13T14:00:00Z,27.0660,-96.3383,2.0,36.47,11111222 
TABS,ioos:station:TABS:X:1,2015-10-13T14:30:00Z,27.0660,-96.3383,2.0,36.47,11111222 
TABS,ioos:station:TABS:X:1,2015-10-13T15:00:00Z,27.0660,-96.3383,2.0,36.46,11111222 
TABS,ioos:station:TABS:X:1,2015-10-13T15:30:00Z,27.0660,-96.3383,2.0,36.46,11111222 
TABS,ioos:station:TABS:X:1,2015-10-13T16:00:00Z,27.0660,-96.3383,2.0,36.47,11111222 
TABS,ioos:station:TABS:X:1,2015-10-13T16:30:00Z,27.0660,-96.3383,2.0,36.46,11111222 
TABS,ioos:station:TABS:X:1,2015-10-13T17:00:00Z,27.0660,-96.3383,2.0,36.48,11111222 
TABS,ioos:station:TABS:X:1,2015-10-13T17:30:00Z,27.0660,-96.3383,2.0,36.47,11111222 
TABS,ioos:station:TABS:X:1,2015-10-13T18:00:00Z,27.0660,-96.3383,2.0,36.48,11111222 
TABS,ioos:station:TABS:X:1,2015-10-13T18:30:00Z,27.0660,-96.3383,2.0,36.48,11111222 
TABS,ioos:station:TABS:X:1,2015-10-13T19:00:00Z,27.0660,-96.3383,2.0,36.48,11111222 
TABS,ioos:station:TABS:X:1,2015-10-13T19:30:00Z,27.0660,-96.3383,2.0,36.49,11111222 
TABS,ioos:station:TABS:X:1,2015-10-13T20:00:00Z,27.0660,-96.3383,2.0,36.45,11111222 
TABS,ioos:station:TABS:X:1,2015-10-13T20:30:00Z,27.0660,-96.3383,2.0,36.45,11111222 
TABS,ioos:station:TABS:X:1,2015-10-13T21:00:00Z,27.0660,-96.3383,2.0,36.54,11111222 
TABS,ioos:station:TABS:X:1,2015-10-13T21:30:00Z,27.0660,-96.3383,2.0,36.51,11111222 
TABS,ioos:station:TABS:X:1,2015-10-13T22:00:00Z,27.0660,-96.3383,2.0,36.53,11111222 
TABS,ioos:station:TABS:X:1,2015-10-13T22:30:00Z,27.0660,-96.3383,2.0,36.54,11111222 
TABS,ioos:station:TABS:X:1,2015-10-13T23:00:00Z,27.0660,-96.3383,2.0,36.52,11111222 
TABS,ioos:station:TABS:X:1,2015-10-13T23:30:00Z,27.0660,-96.3383,2.0,36.72,11111222 
TABS,ioos:station:TABS:X:1,2015-10-14T00:00:00Z,27.0660,-96.3383,2.0,36.6,11111222 
TABS,ioos:station:TABS:X:1,2015-10-14T00:30:00Z,27.0660,-96.3383,2.0,36.61,11111222 
TABS,ioos:station:TABS:X:1,2015-10-14T01:00:00Z,27.0660,-96.3383,2.0,36.58,11111222 
TABS,ioos:station:TABS:X:1,2015-10-14T01:30:00Z,27.0660,-96.3383,2.0,36.58,11111222 
TABS,ioos:station:TABS:X:1,2015-10-14T02:00:00Z,27.0660,-96.3383,2.0,36.51,11111222 
TABS,ioos:station:TABS:X:1,2015-10-14T02:30:00Z,27.0660,-96.3383,2.0,36.55,11111222 
TABS,ioos:station:TABS:X:1,2015-10-14T03:00:00Z,27.0660,-96.3383,2.0,36.44,11111222 
TABS,ioos:station:TABS:X:1,2015-10-14T03:30:00Z,27.0660,-96.3383,2.0,36.45,11111222 
TABS,ioos:station:TABS:X:1,2015-10-14T04:00:00Z,27.0660,-96.3383,2.0,36.44,11111222 
TABS,ioos:station:TABS:X:1,2015-10-14T04:30:00Z,27.0660,-96.3383,2.0,36.48,11111222 
TABS,ioos:station:TABS:X:1,2015-10-14T05:00:00Z,27.0660,-96.3383,2.0,36.49,11111222 
TABS,ioos:station:TABS:X:1,2015-10-14T05:30:00Z,27.0660,-96.3383,2.0,36.48,11111222 
TABS,ioos:station:TABS:X:1,2015-10-14T06:00:00Z,27.0660,-96.3383,2.0,36.49,11111222 
TABS,ioos:station:TABS:X:1,2015-10-14T06:30:00Z,27.0660,-96.3383,2.0,36.49,11111222 
TABS,ioos:station:TABS:X:1,2015-10-14T07:00:00Z,27.0660,-96.3383,2.0,36.48,11111222 
TABS,ioos:station:TABS:X:1,2015-10-14T07:30:00Z,27.0660,-96.3383,2.0,36.48,11111222 
TABS,ioos:station:TABS:X:1,2015-10-14T08:00:00Z,27.0660,-96.3383,2.0,36.48,11111222 
TABS,ioos:station:TABS:X:1,2015-10-14T08:30:00Z,27.0660,-96.3383,2.0,36.48,11111222 
TABS,ioos:station:TABS:X:1,2015-10-14T09:00:00Z,27.0660,-96.3383,2.0,36.48,11111222 
TABS,ioos:station:TABS:X:1,2015-10-14T09:30:00Z,27.0660,-96.3383,2.0,36.48,11111222 
TABS,ioos:station:TABS:X:1,2015-10-14T10:00:00Z,27.0660,-96.3383,2.0,36.48,11111222 
TABS,ioos:station:TABS:X:1,2015-10-14T10:30:00Z,27.0660,-96.3383,2.0,36.47,11111222 
TABS,ioos:station:TABS:X:1,2015-10-14T11:00:00Z,27.0660,-96.3383,2.0,36.47,11111222 
TABS,ioos:station:TABS:X:1,2015-10-14T11:30:00Z,27.0660,-96.3383,2.0,36.47,11111222 
TABS,ioos:station:TABS:X:1,2015-10-14T12:00:00Z,27.0660,-96.3383,2.0,36.47,11111222 
TABS,ioos:station:TABS:X:1,2015-10-14T12:30:00Z,27.0660,-96.3383,2.0,36.47,11111222 
TABS,ioos:station:TABS:X:1,2015-10-14T13:00:00Z,27.0660,-96.3383,2.0,36.47,11111222 
TABS,ioos:station:TABS:X:1,2015-10-14T13:30:00Z,27.0660,-96.3383,2.0,36.47,11111222 
TABS,ioos:station:TABS:X:1,2015-10-14T14:00:00Z,27.0660,-96.3383,2.0,36.47,11111222 
TABS,ioos:station:TABS:X:1,2015-10-14T14:30:00Z,27.0660,-96.3383,2.0,36.46,11111222 
TABS,ioos:station:TABS:X:1,2015-10-14T15:00:00Z,27.0660,-96.3383,2.0,36.47,11111222 
TABS,ioos:station:TABS:X:1,2015-10-14T15:30:00Z,27.0660,-96.3383,2.0,36.47,11111222 
TABS,ioos:station:TABS:X:1,2015-10-14T16:00:00Z,27.0660,-96.3383,2.0,36.47,11111222 
TABS,ioos:station:TABS:X:1,2015-10-14T16:30:00Z,27.0660,-96.3383,2.0,36.46,11111222 
TABS,ioos:station:TABS:X:1,2015-10-14T17:00:00Z,27.0660,-96.3383,2.0,36.48,11111222 
TABS,ioos:station:TABS:X:1,2015-10-14T17:30:00Z,27.0660,-96.3383,2.0,36.49,11111222 
TABS,ioos:station:TABS:X:1,2015-10-14T18:00:00Z,27.0660,-96.3383,2.0,36.47,11111222 
TABS,ioos:station:TABS:X:1,2015-10-14T18:30:00Z,27.0660,-96.3383,2.0,0.0,11111222 
TABS,ioos:station:TABS:X:1,2015-10-14T19:00:00Z,27.0660,-96.3383,2.0,36.49,11111222 
TABS,ioos:station:TABS:X:1,2015-10-14T19:30:00Z,27.0660,-96.3383,2.0,36.5,11111222 
TABS,ioos:station:TABS:X:1,2015-10-14T20:00:00Z,27.0660,-96.3383,2.0,36.5,11111222 
TABS,ioos:station:TABS:X:1,2015-10-14T20:30:00Z,27.0660,-96.3383,2.0,36.5,11111222 
TABS,ioos:station:TABS:X:1,2015-10-14T21:00:00Z,27.0660,-96.3383,2.0,36.49,11111222 
TABS,ioos:station:TABS:X:1,2015-10-14T21:30:00Z,27.0660,-96.3383,2.0,36.5,11111222 
TABS,ioos:station:TABS:X:1,2015-10-14T22:00:00Z,27.0660,-96.3383,2.0,36.51,11111222 
TABS,ioos:station:TABS:X:1,2015-10-14T22:30:00Z,27.0660,-96.3383,2.0,36.5,11111222 
TABS,ioos:station:TABS:X:1,2015-10-14T23:00:00Z,27.0660,-96.3383,2.0,36.5,11111222 
TABS,ioos:station:TABS:X:1,2015-10-14T23:30:00Z,27.0660,-96.3383,2.0,36.5,11111222 
TABS,ioos:station:TABS:X:1,2015-10-15T00:00:00Z,27.0660,-96.3383,2.0,36.5,11111222 
TABS,ioos:station:TABS:X:1,2015-10-15T00:30:00Z,27.0660,-96.3383,2.0,36.5,11111222 
TABS,ioos:station:TABS:X:1,2015-10-15T01:00:00Z,27.0660,-96.3383,2.0,36.5,11111222 
TABS,ioos:station:TABS:X:1,2015-10-15T01:30:00Z,27.0660,-96.3383,2.0,36.5,11111222 
TABS,ioos:station:TABS:X:1,2015-10-15T02:00:00Z,27.0660,-96.3383,2.0,36.49,11111222 
TABS,ioos:station:TABS:X:1,2015-10-15T02:30:00Z,27.0660,-96.3383,2.0,36.49,11111222 
TABS,ioos:station:TABS:X:1,2015-10-15T03:00:00Z,27.0660,-96.3383,2.0,36.5,11111222 
TABS,ioos:station:TABS:X:1,2015-10-15T03:30:00Z,27.0660,-96.3383,2.0,36.49,11111222 
TABS,ioos:station:TABS:X:1,2015-10-15T04:00:00Z,27.0660,-96.3383,2.0,36.49,11111222 
TABS,ioos:station:TABS:X:1,2015-10-15T04:30:00Z,27.0660,-96.3383,2.0,36.49,11111222 
TABS,ioos:station:TABS:X:1,2015-10-15T05:00:00Z,27.0660,-96.3383,2.0,36.48,11111222 
TABS,ioos:station:TABS:X:1,2015-10-15T05:30:00Z,27.0660,-96.3383,2.0,36.49,11111222 
TABS,ioos:station:TABS:X:1,2015-10-15T06:00:00Z,27.0660,-96.3383,2.0,36.49,11111222 
TABS,ioos:station:TABS:X:1,2015-10-15T06:30:00Z,27.0660,-96.3383,2.0,36.49,11111222 
TABS,ioos:station:TABS:X:1,2015-10-15T07:00:00Z,27.0660,-96.3383,2.0,36.5,11111222 
TABS,ioos:station:TABS:X:1,2015-10-15T07:30:00Z,27.0660,-96.3383,2.0,36.49,11111222 
TABS,ioos:station:TABS:X:1,2015-10-15T08:00:00Z,27.0660,-96.3383,2.0,36.49,11111222 
TABS,ioos:station:TABS:X:1,2015-10-15T08:30:00Z,27.0660,-96.3383,2.0,36.48,11111222 
TABS,ioos:station:TABS:X:1,2015-10-15T09:00:00Z,27.0660,-96.3383,2.0,36.49,11111222 
TABS,ioos:station:TABS:X:1,2015-10-15T09:30:00Z,27.0660,-96.3383,2.0,36.48,11111222 
TABS,ioos:station:TABS:X:1,2015-10-15T10:00:00Z,27.0660,-96.3383,2.0,36.49,11111222 
TABS,ioos:station:TABS:X:1,2015-10-15T10:30:00Z,27.0660,-96.3383,2.0,36.49,11111222 
TABS,ioos:station:TABS:X:1,2015-10-15T11:00:00Z,27.0660,-96.3383,2.0,36.49,11111222 
TABS,ioos:station:TABS:X:1,2015-10-15T11:30:00Z,27.0660,-96.3383,2.0,36.49,11111222 
TABS,ioos:station:TABS:X:1,2015-10-15T12:00:00Z,27.0660,-96.3383,2.0,36.49,11111222 
TABS,ioos:station:TABS:X:1,2015-10-15T12:30:00Z,27.0660,-96.3383,2.0,36.49,11111222 
TABS,ioos:station:TABS:X:1,2015-10-15T13:00:00Z,27.0660,-96.3383,2.0,36.49,11111222 
TABS,ioos:station:TABS:X:1,2015-10-15T13:30:00Z,27.0660,-96.3383,2.0,36.49,11111222 
TABS,ioos:station:TABS:X:1,2015-10-15T14:00:00Z,27.0660,-96.3383,2.0,36.49,11111222 
TABS,ioos:station:TABS:X:1,2015-10-15T14:30:00Z,27.0660,-96.3383,2.0,36.48,11111222 
TABS,ioos:station:TABS:X:1,2015-10-15T15:00:00Z,27.0660,-96.3383,2.0,36.48,11111222 
TABS,ioos:station:TABS:X:1,2015-10-15T15:30:00Z,27.0660,-96.3383,2.0,36.48,11111222 
TABS,ioos:station:TABS:X:1,2015-10-15T16:00:00Z,27.0660,-96.3383,2.0,36.48,11111222 
TABS,ioos:station:TABS:X:1,2015-10-15T16:30:00Z,27.0660,-96.3383,2.0,36.48,11111222 
TABS,ioos:station:TABS:X:1,2015-10-15T17:00:00Z,27.0660,-96.3383,2.0,36.48,11111222 
TABS,ioos:station:TABS:X:1,2015-10-15T17:30:00Z,27.0660,-96.3383,2.0,36.48,11111222 
TABS,ioos:station:TABS:X:1,2015-10-15T18:00:00Z,27.0660,-96.3383,2.0,36.48,11111222 
TABS,ioos:station:TABS:X:1,2015-10-15T18:30:00Z,27.0660,-96.3383,2.0,36.48,11111222 
TABS,ioos:station:TABS:X:1,2015-10-15T19:00:00Z,27.0660,-96.3383,2.0,36.48,11111222 
TABS,ioos:station:TABS:X:1,2015-10-15T19:30:00Z,27.0660,-96.3383,2.0,36.48,11111222 
TABS,ioos:station:TABS:X:1,2015-10-15T20:00:00Z,27.0660,-96.3383,2.0,36.47,11111222 
TABS,ioos:station:TABS:X:1,2015-10-15T20:30:00Z,27.0660,-96.3383,2.0,36.47,11111222 
TABS,ioos:station:TABS:X:1,2015-10-15T21:00:00Z,27.0660,-96.3383,2.0,36.47,11111222 
TABS,ioos:station:TABS:X:1,2015-10-15T21:30:00Z,27.0660,-96.3383,2.0,36.47,11111222 
TABS,ioos:station:TABS:X:1,2015-10-15T22:00:00Z,27.0660,-96.3383,2.0,36.46,11111222 
TABS,ioos:station:TABS:X:1,2015-10-15T22:30:00Z,27.0660,-96.3383,2.0,36.46,11111222 
TABS,ioos:station:TABS:X:1,2015-10-15T23:00:00Z,27.0660,-96.3383,2.0,36.46,11111222 
TABS,ioos:station:TABS:X:1,2015-10-15T23:30:00Z,27.0660,-96.3383,2.0,36.46,11111222 
TABS,ioos:station:TABS:X:1,2015-10-16T00:00:00Z,27.0660,-96.3383,2.0,36.47,11111222 
TABS,ioos:station:TABS:X:1,2015-10-16T00:30:00Z,27.0660,-96.3383,2.0,36.46,11111222 
TABS,ioos:station:TABS:X:1,2015-10-16T01:00:00Z,27.0660,-96.3383,2.0,36.46,11111222 
TABS,ioos:station:TABS:X:1,2015-10-16T01:30:00Z,27.0660,-96.3383,2.0,36.46,11111222 
TABS,ioos:station:TABS:X:1,2015-10-16T02:00:00Z,27.0660,-96.3383,2.0,36.46,11111222 
TABS,ioos:station:TABS:X:1,2015-10-16T02:30:00Z,27.0660,-96.3383,2.0,36.47,11111222 
TABS,ioos:station:TABS:X:1,2015-10-16T03:00:00Z,27.0660,-96.3383,2.0,36.46,11111222 
TABS,ioos:station:TABS:X:1,2015-10-16T03:30:00Z,27.0660,-96.3383,2.0,36.46,11111222 
TABS,ioos:station:TABS:X:1,2015-10-16T04:00:00Z,27.0660,-96.3383,2.0,36.46,11111222 
TABS,ioos:station:TABS:X:1,2015-10-16T04:30:00Z,27.0660,-96.3383,2.0,36.46,11111222 
TABS,ioos:station:TABS:X:1,2015-10-16T05:00:00Z,27.0660,-96.3383,2.0,36.46,11111222 
TABS,ioos:station:TABS:X:1,2015-10-16T05:30:00Z,27.0660,-96.3383,2.0,36.46,11111222 
TABS,ioos:station:TABS:X:1,2015-10-16T06:00:00Z,27.0660,-96.3383,2.0,36.46,11111222 
TABS,ioos:station:TABS:X:1,2015-10-16T06:30:00Z,27.0660,-96.3383,2.0,36.46,11111222 
TABS,ioos:station:TABS:X:1,2015-10-16T07:00:00Z,27.0660,-96.3383,2.0,36.46,11111222 
TABS,ioos:station:TABS:X:1,2015-10-16T07:30:00Z,27.0660,-96.3383,2.0,36.46,11111222 
TABS,ioos:station:TABS:X:1,2015-10-16T08:00:00Z,27.0660,-96.3383,2.0,36.47,11111222 
TABS,ioos:station:TABS:X:1,2015-10-16T08:30:00Z,27.0660,-96.3383,2.0,36.47,11111222 
TABS,ioos:station:TABS:X:1,2015-10-16T09:00:00Z,27.0660,-96.3383,2.0,36.47,11111222 
TABS,ioos:station:TABS:X:1,2015-10-16T09:30:00Z,27.0660,-96.3383,2.0,36.47,11111222 
TABS,ioos:station:TABS:X:1,2015-10-16T10:00:00Z,27.0660,-96.3383,2.0,36.47,11111222 
TABS,ioos:station:TABS:X:1,2015-10-16T10:30:00Z,27.0660,-96.3383,2.0,36.47,11111222 
TABS,ioos:station:TABS:X:1,2015-10-16T11:00:00Z,27.0660,-96.3383,2.0,36.46,11111222 
TABS,ioos:station:TABS:X:1,2015-10-16T11:30:00Z,27.0660,-96.3383,2.0,36.47,11111222 
TABS,ioos:station:TABS:X:1,2015-10-16T12:00:00Z,27.0660,-96.3383,2.0,36.46,11111222 
TABS,ioos:station:TABS:X:1,2015-10-16T12:30:00Z,27.0660,-96.3383,2.0,36.47,11111222 
TABS,ioos:station:TABS:X:1,2015-10-16T13:00:00Z,27.0660,-96.3383,2.0,36.47,11111222 
TABS,ioos:station:TABS:X:1,2015-10-16T13:30:00Z,27.0660,-96.3383,2.0,36.47,11111222 
TABS,ioos:station:TABS:X:1,2015-10-16T14:00:00Z,27.0660,-96.3383,2.0,36.47,11111222 
TABS,ioos:station:TABS:X:1,2015-10-16T14:30:00Z,27.0660,-96.3383,2.0,36.47,11111222 
TABS,ioos:station:TABS:X:1,2015-10-16T15:00:00Z,27.0660,-96.3383,2.0,36.47,11111222 
TABS,ioos:station:TABS:X:1,2015-10-16T15:30:00Z,27.0660,-96.3383,2.0,36.47,11111222 
TABS,ioos:station:TABS:X:1,2015-10-16T16:00:00Z,27.0660,-96.3383,2.0,36.47,11111222 
TABS,ioos:station:TABS:X:1,2015-10-16T16:30:00Z,27.0660,-96.3383,2.0,36.47,11111222 
TABS,ioos:station:TABS:X:1,2015-10-16T17:00:00Z,27.0660,-96.3383,2.0,36.47,11111222 